Location: Unspecified
(0.0000°N, 0.0000°E)
Time: 13:53:13
(UTC+02:00)

Delta 168 - Visible Passes

Search period start: 28 May 2016 00:00
Search period end: 07 June 2016 00:00
Orbit: 394 x 2074 km, 25.3° (Epoch: 27 May)

Date Brightness Start Highest point End Pass type
(mag) Time Alt. Az. Time Alt. Az. Time Alt. Az.
28 May 7.1 03:32:55 16° E 03:32:55 16° E 03:34:56 10° ESE visible
28 May 5.1 05:23:04 70° SSW 05:23:04 70° SSW 05:35:50 10° SE visible
28 May 6.2 07:13:13 10° W 07:23:33 35° SSW 07:34:50 10° SE visible
29 May 7.3 03:24:53 10° ESE 03:24:53 10° ESE 03:25:02 10° ESE visible
29 May 5.4 05:15:02 58° S 05:15:02 58° S 05:25:45 10° SE visible
29 May 6.2 07:05:10 14° WSW 07:13:49 33° SSW 07:24:51 10° SE visible
30 May 5.7 05:06:51 45° SSE 05:06:51 45° SSE 05:15:37 10° SE visible
30 May 6.3 06:56:59 17° WSW 07:04:08 30° SSW 07:14:50 10° SE visible
31 May 6.1 04:58:33 34° SSE 04:58:33 34° SSE 05:05:26 10° SE visible
31 May 6.2 06:48:41 19° SW 06:54:29 28° SSW 07:04:47 10° SE visible
01 Jun 6.4 04:50:09 26° SSE 04:50:09 26° SSE 04:55:14 10° SE visible
01 Jun 6.2 06:40:15 20° SW 06:44:54 25° SSW 06:54:41 10° SE visible
02 Jun 6.7 04:41:37 20° SE 04:41:37 20° SE 04:45:00 10° SE visible
02 Jun 6.3 06:31:44 20° SW 06:35:20 23° S 06:44:35 10° SE visible
03 Jun 7.0 04:33:02 14° SE 04:33:02 14° SE 04:34:43 10° SE visible
03 Jun 6.3 06:23:08 20° SSW 06:25:49 21° S 06:34:26 10° SE visible
04 Jun 7.2 04:24:21 10° SE 04:24:21 10° SE 04:24:25 10° SE visible
04 Jun 6.4 06:14:27 19° SSW 06:16:21 20° S 06:24:17 10° SE visible
05 Jun 6.5 06:05:43 18° S 06:06:54 18° S 06:14:07 10° SE visible
06 Jun 6.5 05:56:56 16° S 05:57:29 16° S 06:03:56 10° SSE visible
